Regional Weather Roundup
Issued by NWS Northern Indiana

Home | Current Version | Previous Version | Graphics & Text | Print | Product List | Glossary On
Versions: 1 2 3 4 5 6 7 8 9 10 11 12 13 14 15 16 17 18 19 20 21 22 23 24 25 26 27 28 29 30 31 32 33 34 35 36 37 38 39 40 41 42 43 44 45 46 47 48 49 50
000
ASUS43 KIWX 311600
RWRIWX

KIWX WEATHER ROUNDUP
NATIONAL WEATHER SERVICE NORTHERN INDIANA
1200 PM EDT FRI JUL 31 2015

NOTE: "FAIR" INDICATES FEW OR NO CLOUDS BELOW 12,000 FEET WITH NO
SIGNIFICANT WEATHER AND/OR OBSTRUCTIONS TO VISIBILITY.

* THESE STATIONS ARE NOT UNDER NWS QUALITY CONTROL. THEY ALSO MAY NOT
  REPORT WEATHER SUCH AS PRECIPITATION OR FOG.

INZ001>027-311700-
NORTHERN INDIANA

CITY           SKY/WX    TMP DP  RH WIND       PRES   REMARKS
GARY*          MOSUNNY   86  64  48 W17       30.00F
KNOX*          MOSUNNY   79  63  57 SW10G16   30.00F
SOUTH BEND     SUNNY     84  63  49 SW13      29.99F
ELKHART*       MOSUNNY   82  59  44 SW10      29.99F
GOSHEN         CLOUDY    80  61  52 W12       30.00F
MONTICELLO*    SUNNY     82  66  57 W10       30.03F
WARSAW*        PTSUNNY   81  61  50 W10G18    30.02F
ANGOLA*        SUNNY     82  63  51 W10       29.99S
FORT WAYNE     SUNNY     83  61  47 W12G21    30.02F
PERU/GRISSOM   SUNNY     82  62  50 W12       30.03F

$$
INZ028>050-311700-
CENTRAL INDIANA

CITY           SKY/WX    TMP DP  RH WIND       PRES   REMARKS
LAFAYETTE      MOSUNNY   81  64  56 W12       30.05S
KOKOMO*        SUNNY     82  61  47 W13       30.04F
MUNCIE*        SUNNY     81  60  48 NW8       30.05S
INDIANAPOLIS   MOSUNNY   84  57  39 NW8       30.06S

$$
MIZ043>046-050>051-056>058-064>065-071>073-077>080-311700-
SOUTHWEST LOWER MICHIGAN

CITY           SKY/WX    TMP DP  RH WIND       PRES   REMARKS
BATTLE CREEK   SUNNY     83  62  49 W16       29.97F
BENTON HARBOR  SUNNY     80  64  58 W21       29.98F
COLDWATER*     MOSUNNY   81  59  47 W15G24    29.98S
HILLSDALE*     SUNNY     83  59  44 W15       29.98F
HOLLAND        SUNNY     79  62  56 W12G22    29.96F
GRAND RAPIDS   MOSUNNY   82  57  42 NW18G26   29.94S
KALAMAZOO      MOSUNNY   83  61  47 W12G21    29.97F
STURGIS*       MOSUNNY   81  61  50 W13G20    29.98F
THREE RIVERS*  FAIR      82  61  49 W9        29.98F

$$
OHZ001>008-015>018-024>025-311700-
NORTHWEST OHIO

CITY           SKY/WX    TMP DP  RH WIND       PRES   REMARKS
DEFIANCE       SUNNY     85  56  37 SW8       29.99F
FINDLAY        SUNNY     83  62  49 W10       29.99F
TOLEDO EXPRESS SUNNY     81  61  50 SW14      29.96F
TOLEDO METCALF SUNNY     84  59  42 W12       29.97F
LIMA           SUNNY     81  61  50 NW10      30.02F

$$
AND FOR LAKE MICHIGAN COASTAL AND OPEN LAKE BUOY OBSERVATIONS

STATION/POSITION TEMP    WIND        PRES    VSBY  WAVE
                 AIR SEA DIR/SP/G                  HT/PER
                 (F)     (DEG/KT/KT) (MB)    (MI)  (FT/S)
CALUMET HARBOR    81     260/  3/ 10   N/A
MICHIGAN CITY     76     210/ 13/ 15   N/A
BURNS HARBOR      78     240/  9/ 13 1016.3F
SAINT JOSEPH      76     210/ 13/ 16 1015.6F
4 MI NW BRIDGMAN  73 74  270/ 10/ 12   N/A           3/ 4
MICHIGAN CITY     75 73  250/ 12/ 14   N/A           2/ 3

$$
&&



USA.gov is the U.S. government's official web portal to all federal, state and local government web resources and services.